[[{"header":{"parameterUnit":"m.s-1","parameterCategory":2,"la1":30.2991,"la2":30.254,"lo1":-89.0895,"lo2":-89.0444,"dy":0.0017,"dx":0.0017,"nx":28,"ny":28,"refTime":"2023-08-29T21:00:00:Z","depth":"0","parameterNumber":2,"parameterNumberName":"U-component_of_CURRENTS"},"data":[0,0,0,0,0,0,0,0,0,0,0,0,0,0,0,0,0,0,0,0,0,0,0,0,0,0,0,0,0,0,0,0,0,0,0,0,0,0,0,0,0,0,0,0,0,0,0,0,0,0,0,0,0,0,0,0,0,0,0.3232,0.3233,0,0.3296,0.3297,0.3297,0.3301,0.3301,0.33,0.33,0.3276,0.3275,0.3275,0,0,0,0,0,0,0,0,0,0,0,0,0,0.3148,0.3149,0.3232,0.3233,0.3235,0.3296,0.3297,0.3297,0.3301,0.3301,0.33,0.33,0.3276,0.3275,0.3275,0,0,0,0,0,0,0,0,0,0,0,0,0,0.3191,0.3149,0.3232,0.3248,0.325,0.3296,0.3297,0.3297,0.3301,0.3301,0.33,0.33,0.3276,0.3275,0.3275,0.3279,0,0,0.3273,0.3273,0,0,0,0,0,0,0,0,0.3188,0.3193,0.3244,0.3247,0.325,0.3295,0.3258,0.3288,0.3301,0.3276,0.33,0.33,0.3277,0.3277,0.3284,0.3278,0.3277,0.3273,0.3272,0.3272,0.3272,0,0,0,0,0,0,0,0.3185,0.3191,0.3252,0.3246,0.3249,0.3264,0.3269,0.3264,0.3273,0.3279,0.328,0.3296,0.3277,0.3284,0.3283,0.3276,0.3273,0.3272,0.3272,0.3272,0.3296,0.3297,0,0,0,0,0,0,0.3186,0.3188,0.3251,0.3255,0.3223,0.3266,0.3271,0.3277,0.3275,0.3276,0.3296,0.3296,0.3286,0.3284,0.3282,0.3301,0.3272,0.3272,0.3271,0.3295,0.3296,0.3298,0,0,0,0,0,0,0.3184,0.3191,0.3248,0.3227,0.3236,0.3268,0.3274,0.3278,0.3288,0.329,0.3289,0.3302,0.3285,0.3283,0.3285,0.3299,0.3271,0.3271,0.3294,0.3296,0.3297,0.333,0,0,0,0,0,0,0.3181,0.3189,0.3192,0.3227,0.3238,0.3279,0.3275,0.328,0.33,0.33,0.3295,0.3292,0.3285,0.3286,0.3285,0.3298,0.327,0.3293,0.3295,0.3296,0.3327,0.3332,0.3336,0,0,0,0,0,0.3178,0.3181,0.3192,0.32,0.3241,0.328,0.3286,0.3304,0.3301,0.3309,0.3307,0.3293,0.3297,0.3287,0.3284,0.3298,0.3292,0.3294,0.3296,0.3325,0.3331,0.3336,0,0,0,0,0,0,0.3136,0.3184,0.3195,0.321,0.3247,0.3283,0.3292,0.3307,0.3314,0.3306,0.3301,0.3299,0.331,0.33,0.3289,0.3313,0.3294,0.3296,0.3317,0.3322,0.3326,0.3328,0.327,0,0,0,0,0,0.3133,0.315,0.3198,0.3208,0.3227,0.326,0.3277,0.3293,0.3308,0.3311,0.3311,0.331,0.3319,0.3316,0.332,0.3326,0.3325,0.3336,0.3341,0.3344,0.3346,0.3357,0.3362,0.3305,0.3305,0.3305,0,0,0.3118,0.3148,0.3156,0.3202,0.3226,0.3257,0.3267,0.3294,0.3316,0.3305,0.332,0.3324,0.3326,0.334,0.3343,0.3331,0.3363,0.3347,0.335,0.3349,0.336,0.3365,0.337,0.3307,0.3306,0.3306,0,0,0.3104,0.3126,0.314,0.3175,0.3222,0.325,0.326,0.33,0.3313,0.3334,0.3337,0.3352,0.3354,0.3368,0.3372,0.3402,0.339,0.3404,0.3422,0.3433,0.3437,0.3441,0.3459,0.3464,0.3402,0.3402,0.3402,0,0.3084,0.3113,0.3149,0.3177,0.3208,0.3247,0.3273,0.3298,0.3332,0.3349,0.3338,0.337,0.337,0.3401,0.3415,0.3412,0.3416,0.3399,0.3438,0.3442,0.3445,0.3462,0.3467,0.3404,0.3404,0.3403,0.3403,0,0.3093,0.3117,0.3128,0.3179,0.3213,0.3242,0.3292,0.3314,0.3332,0.3363,0.3395,0.3401,0.3421,0.3429,0.3429,0.3463,0.3458,0.3445,0.3422,0.3453,0.3469,0.3474,0.3406,0.3406,0.3405,0.3405,0,0,0.3042,0.312,0.3121,0.3144,0.3219,0.324,0.3285,0.3341,0.3372,0.3395,0.3431,0.3454,0.3465,0.3472,0.3479,0.349,0.3525,0.3478,0.3478,0.3492,0.3555,0.3573,0.358,0.3514,0.3515,0.3516,0.356,0,0.3038,0.3081,0.313,0.3165,0.3193,0.325,0.329,0.3341,0.339,0.3433,0.3454,0.3492,0.3481,0.3496,0.3505,0.3528,0.3537,0.3514,0.3527,0.3527,0.3535,0.3586,0.3546,0.3584,0.3565,0.3566,0.3566,0,0.3033,0.3065,0.3103,0.3163,0.3179,0.3206,0.3279,0.3328,0.341,0.3449,0.3494,0.3521,0.356,0.3535,0.3574,0.3559,0.3559,0.3564,0.3566,0.3572,0.3554,0.3548,0.3593,0.3541,0.3573,0.3573,0.3572,0,0.2979,0.3039,0.3066,0.309,0.317,0.3188,0.3232,0.3324,0.3383,0.347,0.351,0.356,0.3588,0.3595,0.3623,0.3597,0.3661,0.3622,0.3635,0.3636,0.3601,0.3598,0.3591,0.3636,0.3636,0.3635,0.3635,0,0.2964,0.2977,0.3035,0.305,0.3082,0.3146,0.3204,0.3267,0.337,0.3437,0.3508,0.3558,0.3603,0.3649,0.3646,0.3678,0.3681,0.3654,0.3654,0.3613,0.3611,0.3561,0.3517,0.3637,0.3637,0.3636,0.3636,0,0.2914,0.2954,0.2983,0.3044,0.3063,0.3086,0.3191,0.3232,0.3339,0.3427,0.3455,0.3575,0.3644,0.3693,0.3734,0.3718,0.3656,0.3741,0.3702,0.3697,0.364,0.36,0.3411,0.3307,0.3752,0.3752,0.3753,0,0.2901,0.2911,0.2966,0.2977,0.3004,0.3053,0.3086,0.3206,0.3264,0.3427,0.3449,0.3573,0.3645,0.3745,0.3777,0.3811,0.3677,0.3765,0.3702,0.365,0.3605,0.341,0.332,0.3669,0.3668,0.3668,0.3668,0,0.2878,0.2892,0.2914,0.2941,0.2961,0.3004,0.306,0.3105,0.324,0.3317,0.342,0.3501,0.3646,0.3702,0.3794,0.3795,0.362,0.3763,0.3712,0.355,0.3332,0.3229,0.3631,0.3668,0.3668,0.3668,0.3668,0.3668,0.2853,0.2862,0.2886,0.2904,0.2921,0.2942,0.2953,0.3018,0.3104,0.3203,0.3332,0.3422,0.3607,0.3748,0.3722,0.3718,0.3603,0.3649,0.3609,0.3419,0.3293,0.3708,0.3743,0.3743,0.3744,0.3744,0.3745,0,0.2832,0.284,0.2848,0.286,0.2844,0.2883,0.2919,0.2914,0.2955,0.3082,0.3175,0.3373,0.3488,0.359,0.3703,0.361,0.3388,0.3517,0.3242,0.3164,0.3566,0.3544,0.3535,0.3535,0.3535,0.3535,0.3535,0.3535,0.2824,0.2821,0.2823,0.2787,0.278,0.2743,0.2745,0.2743,0.2802,0.2883,0.2982,0.3104,0.337,0.3588,0.3587,0.3502,0.3224,0.3103,0.3013,0.3357,0.3365,0.3373,0.3343,0.3292,0.3291,0.2509,0.2504,0.25]},{"header":{"parameterUnit":"m.s-1","parameterCategory":2,"la1":30.2991,"la2":30.254,"lo1":-89.0895,"lo2":-89.0444,"dy":0.0017,"dx":0.0017,"nx":28,"ny":28,"refTime":"2023-08-29T21:00:00:Z","depth":"0","parameterNumber":3,"parameterNumberName":"V-component_of_CURRENTS"},"data":[0,0,0,0,0,0,0,0,0,0,0,0,0,0,0,0,0,0,0,0,0,0,0,0,0,0,0,0,0,0,0,0,0,0,0,0,0,0,0,0,0,0,0,0,0,0,0,0,0,0,0,0,0,0,0,0,0,0,-0.013,-0.0131,0,-0.0181,-0.0181,-0.0182,-0.0232,-0.0233,-0.0233,-0.0234,-0.0312,-0.0313,-0.0315,0,0,0,0,0,0,0,0,0,0,0,0,0,-0.011,-0.011,-0.013,-0.0131,-0.0132,-0.0181,-0.0181,-0.0182,-0.0232,-0.0233,-0.0233,-0.0234,-0.0311,-0.0313,-0.0315,0,0,0,0,0,0,0,0,0,0,0,0,0,-0.0136,-0.011,-0.013,-0.0162,-0.0165,-0.018,-0.0181,-0.0182,-0.0232,-0.0233,-0.0234,-0.0234,-0.0311,-0.0313,-0.0315,-0.0311,0,0,-0.0322,-0.0323,0,0,0,0,0,0,0,0,-0.0134,-0.0137,-0.0157,-0.016,-0.0163,-0.02,-0.0203,-0.0226,-0.0232,-0.0207,-0.0234,-0.0235,-0.0276,-0.0281,-0.0289,-0.0314,-0.0318,-0.0322,-0.0323,-0.0324,-0.0325,0,0,0,0,0,0,0,-0.0133,-0.0135,-0.0151,-0.0157,-0.0161,-0.0185,-0.0189,-0.0208,-0.0237,-0.0209,-0.0213,-0.0217,-0.0278,-0.0287,-0.0291,-0.0319,-0.0322,-0.0324,-0.0325,-0.0326,-0.0352,-0.0352,0,0,0,0,0,0,-0.0122,-0.0133,-0.0149,-0.0152,-0.015,-0.0184,-0.0189,-0.0188,-0.0236,-0.0244,-0.0216,-0.0219,-0.0282,-0.0289,-0.0294,-0.0281,-0.0324,-0.0327,-0.0328,-0.0353,-0.0352,-0.0351,0,0,0,0,0,0,-0.0121,-0.0123,-0.0147,-0.0144,-0.0149,-0.0183,-0.0182,-0.0189,-0.0197,-0.0241,-0.025,-0.0218,-0.0283,-0.0291,-0.0304,-0.0285,-0.0328,-0.033,-0.0354,-0.0353,-0.0352,-0.0262,0,0,0,0,0,0,-0.0121,-0.0122,-0.0117,-0.0143,-0.0148,-0.0143,-0.0181,-0.0189,-0.0198,-0.0203,-0.0245,-0.0254,-0.0285,-0.03,-0.0306,-0.0289,-0.0331,-0.0354,-0.0353,-0.0352,-0.0266,-0.0258,-0.0252,0,0,0,0,0,-0.012,-0.01,-0.0116,-0.0118,-0.014,-0.0142,-0.0146,-0.0176,-0.0197,-0.0189,-0.0222,-0.0252,-0.0297,-0.0301,-0.0308,-0.0292,-0.0355,-0.0354,-0.0352,-0.0269,-0.026,-0.0252,0,0,0,0,0,0,-0.0082,-0.0104,-0.0122,-0.011,-0.0122,-0.015,-0.0146,-0.0168,-0.0187,-0.0194,-0.0241,-0.025,-0.0258,-0.0285,-0.0289,-0.0297,-0.0332,-0.0332,-0.0267,-0.0258,-0.0251,-0.0228,-0.0333,0,0,0,0,0,-0.0073,-0.0068,-0.0091,-0.008,-0.0084,-0.0115,-0.0121,-0.0139,-0.0161,-0.0171,-0.0202,-0.0234,-0.0256,-0.0265,-0.0291,-0.0288,-0.0318,-0.0285,-0.0277,-0.0271,-0.0258,-0.0284,-0.0277,-0.0346,-0.0346,-0.0346,0,0,-0.0055,-0.0067,-0.0064,-0.0073,-0.0087,-0.0075,-0.0121,-0.0119,-0.0112,-0.0175,-0.0173,-0.0211,-0.0252,-0.0253,-0.0259,-0.0273,-0.0267,-0.0269,-0.0263,-0.0253,-0.0281,-0.0274,-0.0268,-0.0345,-0.0346,-0.0346,0,0,-0.0009,-0.0027,-0.0006,-0.0013,-0.0027,-0.0042,-0.0038,-0.0062,-0.0075,-0.0079,-0.0125,-0.0145,-0.0179,-0.0199,-0.0216,-0.0182,-0.0232,-0.0197,-0.0136,-0.0161,-0.0155,-0.015,-0.0179,-0.0177,-0.0189,-0.0188,-0.0188,0,0.0012,0.0032,0.0002,0.0019,0.0024,-0.0021,0.0008,-0.0008,-0.0033,-0.0035,-0.0066,-0.0112,-0.015,-0.0147,-0.014,-0.0164,-0.0191,-0.0163,-0.015,-0.0146,-0.0143,-0.0173,-0.0173,-0.0184,-0.0184,-0.0185,-0.0185,0,0.007,0.0084,0.0098,0.0104,0.0109,0.0124,0.0102,0.0099,0.0072,0.0054,0.0042,-0.0011,-0.0036,-0.0053,-0.0088,-0.0079,-0.0111,-0.0141,-0.0168,-0.013,-0.0165,-0.0166,-0.0177,-0.0179,-0.018,-0.0182,0,0,0.0121,0.0136,0.0141,0.0159,0.0153,0.0167,0.0181,0.0187,0.0205,0.0161,0.018,0.0129,0.0091,0.007,0.0021,0.0,-0.0007,-0.0053,-0.0057,-0.0073,-0.0065,-0.0067,-0.007,-0.0037,-0.0037,-0.0037,-0.0099,0,0.0174,0.023,0.0223,0.0278,0.0305,0.0276,0.0292,0.0288,0.028,0.0284,0.0222,0.0215,0.014,0.013,0.0097,0.0022,-0.0005,0.0013,-0.0106,-0.0109,-0.0109,-0.0069,-0.0029,-0.0079,-0.01,-0.01,-0.0101,0,0.023,0.0262,0.0328,0.0361,0.037,0.0392,0.0423,0.0437,0.0426,0.0418,0.0398,0.0342,0.0303,0.0231,0.0126,0.0139,0.0047,-0.0018,-0.0023,-0.0054,-0.0113,-0.0122,-0.0081,-0.0257,-0.0103,-0.0103,-0.0103,0,0.0281,0.0335,0.0392,0.0402,0.0432,0.0452,0.0467,0.0475,0.0512,0.0509,0.0532,0.0459,0.0439,0.0316,0.0171,0.0146,0.0054,-0.0002,-0.0091,-0.0093,-0.0095,-0.0098,-0.023,-0.0075,-0.0075,-0.0075,-0.0075,0,0.0336,0.038,0.0418,0.0446,0.0515,0.051,0.0586,0.0588,0.0621,0.0697,0.0603,0.0643,0.0461,0.0379,0.022,0.0076,0.0087,-0.0065,-0.01,-0.0064,-0.0062,-0.0247,-0.0346,-0.0077,-0.0077,-0.0076,-0.0076,0,0.0377,0.04,0.0468,0.0516,0.0539,0.0587,0.0669,0.0727,0.074,0.0839,0.0841,0.0788,0.0691,0.0499,0.0318,0.0163,-0.0087,-0.0053,0.0003,-0.0024,-0.0277,-0.0371,-0.0535,-0.0626,-0.0162,-0.0163,-0.0163,0,0.0402,0.0442,0.0525,0.058,0.0605,0.0683,0.0742,0.0783,0.0869,0.0946,0.1003,0.0935,0.0938,0.0658,0.037,0.0103,-0.0082,-0.0055,-0.0097,-0.0269,-0.0402,-0.048,-0.0551,-0.0074,-0.0074,-0.0073,-0.0073,0,0.0459,0.0485,0.0548,0.0657,0.0734,0.0838,0.0934,0.1023,0.11,0.1194,0.1307,0.1313,0.1053,0.0823,0.044,0.0234,-0.0168,-0.0055,-0.0246,-0.0344,-0.0424,-0.0534,-0.0068,-0.0069,-0.007,-0.007,-0.007,-0.007,0.0506,0.0562,0.0649,0.0754,0.0853,0.0994,0.1104,0.1235,0.1402,0.1588,0.1562,0.1637,0.1253,0.0747,0.042,-0.0132,-0.0159,-0.0291,-0.0391,-0.0456,-0.0538,-0.006,-0.0093,-0.0094,-0.0094,-0.0095,-0.0095,0,0.0579,0.0647,0.0746,0.0888,0.1013,0.1048,0.124,0.1376,0.1607,0.1787,0.1915,0.1806,0.1325,0.0785,0.0051,-0.0369,-0.0555,-0.061,-0.0722,-0.0782,-0.0361,-0.0351,-0.0424,-0.0424,-0.0424,-0.0424,-0.0423,-0.0423,0.0628,0.0736,0.0786,0.1006,0.111,0.1299,0.1421,0.163,0.1803,0.2069,0.2168,0.2191,0.1798,0.048,-0.0461,-0.0708,-0.1016,-0.1079,-0.1259,-0.0981,-0.096,-0.0939,-0.0954,-0.1153,-0.1154,-0.1624,-0.1629,-0.1632]}],[{"header":{"parameterUnit":"m.s-1","parameterCategory":2,"la1":30.2991,"la2":30.254,"lo1":-89.0895,"lo2":-89.0444,"dy":0.0017,"dx":0.0017,"nx":28,"ny":28,"refTime":"2023-08-29T21:00:00:Z","depth":"2","parameterNumber":2,"parameterNumberName":"U-component_of_CURRENTS"},"data":[0,0,0,0,0,0,0,0,0,0,0,0,0,0,0,0,0,0,0,0,0,0,0,0,0,0,0,0,0,0,0,0,0,0,0,0,0,0,0,0,0,0,0,0,0,0,0,0,0,0,0,0,0,0,0,0,0,0,0.2426,0.2427,0,0.2452,0.2453,0.2453,0.2459,0.2459,0.2458,0.2458,0.2519,0.2521,0.2523,0,0,0,0,0,0,0,0,0,0,0,0,0,0.2391,0.2392,0.2426,0.2427,0.2427,0.2452,0.2453,0.2453,0.2459,0.2459,0.2458,0.2458,0.2518,0.2521,0.2523,0,0,0,0,0,0,0,0,0,0,0,0,0,0.2412,0.2392,0.2426,0.2432,0.2433,0.2452,0.2453,0.2453,0.2459,0.2459,0.2458,0.2458,0.2518,0.252,0.2523,0.255,0,0,0.2532,0.2533,0,0,0,0,0,0,0,0,0.2411,0.2413,0.2431,0.2432,0.2432,0.2451,0.2463,0.2487,0.2459,0.245,0.2458,0.2457,0.2499,0.2503,0.251,0.2552,0.2555,0.2532,0.2534,0.2535,0.2536,0,0,0,0,0,0,0,0.2409,0.2412,0.2438,0.2431,0.2432,0.2436,0.2439,0.2467,0.2478,0.2451,0.2451,0.2452,0.25,0.2508,0.2512,0.2556,0.2532,0.2535,0.2536,0.2537,0.2632,0.2633,0,0,0,0,0,0,0.2404,0.2411,0.2437,0.2439,0.2419,0.2437,0.244,0.2446,0.2477,0.2481,0.2453,0.2452,0.2503,0.2509,0.2514,0.2575,0.2535,0.2538,0.2539,0.2631,0.2632,0.2633,0,0,0,0,0,0,0.2403,0.2406,0.2436,0.2424,0.2428,0.2438,0.2445,0.2447,0.2473,0.2478,0.2482,0.2478,0.2503,0.251,0.2546,0.2576,0.2539,0.2542,0.263,0.2631,0.2632,0.2678,0,0,0,0,0,0,0.2402,0.2406,0.241,0.2424,0.2428,0.2463,0.2446,0.2448,0.2472,0.2473,0.2501,0.2505,0.2503,0.2542,0.2549,0.2579,0.2544,0.2629,0.2631,0.2632,0.2676,0.2681,0.2685,0,0,0,0,0,0.2401,0.2402,0.2411,0.2414,0.2434,0.2464,0.2468,0.2474,0.2474,0.2494,0.2503,0.2505,0.2556,0.2545,0.2553,0.2585,0.2628,0.263,0.2632,0.2674,0.268,0.2685,0,0,0,0,0,0,0.2379,0.2404,0.2413,0.2419,0.245,0.2465,0.2479,0.249,0.2514,0.2514,0.2521,0.2526,0.257,0.2569,0.2557,0.2614,0.2591,0.2595,0.262,0.2626,0.2631,0.263,0.2546,0,0,0,0,0,0.238,0.24,0.2422,0.2436,0.2451,0.2474,0.2487,0.2496,0.2516,0.2526,0.2539,0.2554,0.2582,0.2597,0.2616,0.2653,0.2658,0.2675,0.268,0.2684,0.2688,0.272,0.2729,0.2639,0.2639,0.2639,0,0,0.2376,0.2393,0.2404,0.2435,0.2459,0.248,0.2482,0.2512,0.2533,0.2531,0.2561,0.2579,0.2597,0.2632,0.2651,0.2636,0.2713,0.2687,0.269,0.2692,0.2723,0.2732,0.274,0.264,0.264,0.264,0,0,0.2378,0.2399,0.2416,0.2441,0.2478,0.2497,0.2513,0.254,0.2558,0.2591,0.2595,0.2626,0.266,0.2675,0.2689,0.2734,0.2742,0.2746,0.2769,0.2801,0.2808,0.2815,0.2837,0.2846,0.2743,0.2743,0.2743,0,0.2373,0.2393,0.2427,0.2447,0.2468,0.2508,0.253,0.2558,0.259,0.2609,0.2604,0.2664,0.2678,0.2732,0.2742,0.2747,0.2764,0.2748,0.2808,0.2815,0.2821,0.2842,0.285,0.2745,0.2745,0.2745,0.2745,0,0.2381,0.2402,0.2418,0.2461,0.2491,0.2521,0.2562,0.2591,0.2616,0.2639,0.2699,0.2719,0.2753,0.2767,0.277,0.2829,0.2826,0.2816,0.2795,0.2833,0.2852,0.286,0.2749,0.2748,0.2747,0.2747,0,0,0.2355,0.2413,0.2418,0.2435,0.2501,0.252,0.2572,0.2625,0.266,0.2695,0.2743,0.2789,0.2809,0.2826,0.2844,0.2869,0.2927,0.2864,0.2865,0.2889,0.3,0.2975,0.2981,0.2934,0.2935,0.2937,0.2996,0,0.2355,0.2386,0.2422,0.2457,0.2479,0.2532,0.2576,0.2628,0.2684,0.2738,0.2783,0.2839,0.2833,0.2864,0.2891,0.2928,0.2951,0.2912,0.2956,0.2957,0.2933,0.2991,0.2776,0.281,0.3004,0.3006,0.3007,0,0.2339,0.237,0.2405,0.2455,0.247,0.2497,0.2576,0.2625,0.2719,0.2766,0.2835,0.288,0.2948,0.2928,0.3004,0.2984,0.2995,0.3009,0.3011,0.2977,0.2948,0.2802,0.2818,0.302,0.3019,0.3018,0.3017,0,0.2294,0.2343,0.2374,0.2392,0.2465,0.2488,0.2532,0.2627,0.2691,0.28,0.2856,0.2937,0.2995,0.3025,0.3067,0.3044,0.314,0.3105,0.3089,0.3087,0.2906,0.2886,0.3145,0.3145,0.3145,0.3145,0.3145,0,0.2268,0.2285,0.2349,0.2364,0.24,0.2459,0.2528,0.2584,0.2701,0.2778,0.2873,0.2949,0.3025,0.3092,0.3099,0.3136,0.3168,0.3109,0.3109,0.2916,0.2897,0.3075,0.3066,0.3147,0.3147,0.3146,0.3146,0,0.221,0.2259,0.2286,0.2355,0.2382,0.2405,0.2521,0.2564,0.2688,0.2796,0.2838,0.2984,0.3075,0.3138,0.3205,0.3183,0.3211,0.3207,0.298,0.2952,0.3122,0.3115,0.319,0.319,0.319,0.3189,0.3189,0,0.2191,0.2197,0.2267,0.2289,0.2322,0.2384,0.2425,0.2547,0.2609,0.2806,0.2839,0.2991,0.3072,0.3184,0.3187,0.3211,0.3236,0.3006,0.2916,0.3139,0.3131,0.3124,0.3117,0.269,0.2686,0.2683,0.268,0,0.2146,0.2166,0.2193,0.2244,0.2278,0.232,0.2389,0.2441,0.2587,0.2687,0.2816,0.2906,0.3044,0.3001,0.3059,0.3029,0.2987,0.2938,0.3236,0.2723,0.2676,0.2665,0.2673,0.2649,0.2652,0.2655,0.2656,0.2657,0.2111,0.2112,0.2151,0.2186,0.2218,0.2233,0.2247,0.2328,0.2418,0.2533,0.2688,0.2754,0.2824,0.2821,0.2745,0.269,0.2882,0.2739,0.2746,0.2757,0.27,0.2656,0.2614,0.2617,0.2619,0.2621,0.2623,0,0.2064,0.2071,0.2094,0.2118,0.2095,0.216,0.2199,0.2189,0.2239,0.2384,0.2486,0.2362,0.2376,0.2427,0.2317,0.2326,0.2255,0.2214,0.21,0.2136,0.2166,0.2073,0.1824,0.1821,0.1818,0.1815,0,0,0.2045,0.2041,0.2048,0.1993,0.2006,0.1974,0.1976,0.1969,0.2038,0.2059,0.2104,0.2315,0.2417,0.2105,0.2069,0.1931,0.2006,0.1854,0.2512,0.2419,0.2444,0.2505,0.2409,0,0,0,0,0]},{"header":{"parameterUnit":"m.s-1","parameterCategory":2,"la1":30.2991,"la2":30.254,"lo1":-89.0895,"lo2":-89.0444,"dy":0.0017,"dx":0.0017,"nx":28,"ny":28,"refTime":"2023-08-29T21:00:00:Z","depth":"2","parameterNumber":3,"parameterNumberName":"V-component_of_CURRENTS"},"data":[0,0,0,0,0,0,0,0,0,0,0,0,0,0,0,0,0,0,0,0,0,0,0,0,0,0,0,0,0,0,0,0,0,0,0,0,0,0,0,0,0,0,0,0,0,0,0,0,0,0,0,0,0,0,0,0,0,0,0.0143,0.0143,0,0.0102,0.0101,0.0101,0.0063,0.0062,0.0062,0.0062,-0.0021,-0.0022,-0.0024,0,0,0,0,0,0,0,0,0,0,0,0,0,0.0157,0.0157,0.0143,0.0143,0.0143,0.0102,0.0101,0.0101,0.0063,0.0062,0.0062,0.0062,-0.002,-0.0022,-0.0025,0,0,0,0,0,0,0,0,0,0,0,0,0,0.0135,0.0157,0.0143,0.012,0.0118,0.0102,0.0101,0.01,0.0063,0.0062,0.0062,0.0062,-0.0019,-0.0022,-0.0025,-0.0035,0,0,-0.0034,-0.0035,0,0,0,0,0,0,0,0,0.0136,0.0134,0.0124,0.0122,0.0119,0.0089,0.0076,0.0054,0.0063,0.0081,0.0062,0.0061,0.0014,0.0008,-0.0001,-0.0039,-0.0043,-0.0034,-0.0036,-0.0037,-0.0038,0,0,0,0,0,0,0,0.0138,0.0135,0.0124,0.0124,0.0121,0.0102,0.0098,0.0071,0.0048,0.008,0.0077,0.0077,0.0012,0.0002,-0.0004,-0.0044,-0.0034,-0.0037,-0.0038,-0.004,-0.0096,-0.0096,0,0,0,0,0,0,0.015,0.0137,0.0126,0.0123,0.013,0.0102,0.0098,0.0097,0.0049,0.0042,0.0077,0.0075,0.0007,-0.0,-0.0007,-0.0013,-0.0037,-0.004,-0.0042,-0.0096,-0.0096,-0.0096,0,0,0,0,0,0,0.015,0.0149,0.0127,0.0131,0.0127,0.0103,0.0102,0.0097,0.0086,0.0048,0.004,0.0072,0.0006,-0.0002,-0.0024,-0.0017,-0.0041,-0.0044,-0.0097,-0.0096,-0.0096,-0.0032,0,0,0,0,0,0,0.0151,0.0149,0.0152,0.0132,0.0128,0.0125,0.0102,0.0096,0.0087,0.0084,0.0041,0.0033,0.0005,-0.0019,-0.0026,-0.0022,-0.0046,-0.0097,-0.0096,-0.0096,-0.0035,-0.003,-0.0025,0,0,0,0,0,0.0151,0.0165,0.0152,0.0151,0.0132,0.0125,0.0121,0.01,0.0088,0.0088,0.006,0.0034,-0.0021,-0.0021,-0.003,-0.0026,-0.0097,-0.0097,-0.0096,-0.0037,-0.0031,-0.0026,0,0,0,0,0,0,0.0175,0.0162,0.0148,0.0157,0.0143,0.012,0.0121,0.0104,0.0082,0.008,0.0038,0.0029,0.0011,-0.0015,-0.0014,-0.0041,-0.0064,-0.0065,-0.0016,-0.0011,-0.0006,0.0015,-0.0049,0,0,0,0,0,0.0181,0.0184,0.0167,0.0172,0.0169,0.0143,0.0137,0.0124,0.0104,0.0094,0.0063,0.0032,0.0006,-0.0007,-0.0035,-0.0048,-0.0077,-0.0052,-0.0047,-0.0043,-0.0032,-0.0073,-0.0071,-0.0094,-0.0094,-0.0094,0,0,0.0192,0.0185,0.0187,0.0177,0.0164,0.0171,0.0138,0.0137,0.014,0.0088,0.0081,0.0046,0.0006,-0.0008,-0.0018,-0.0029,-0.0052,-0.0043,-0.0039,-0.003,-0.0072,-0.007,-0.0068,-0.0093,-0.0093,-0.0093,0,0,0.0223,0.0209,0.0224,0.0216,0.0205,0.0193,0.0196,0.0175,0.0161,0.0149,0.0113,0.0086,0.0047,0.0021,0.0003,0.0016,-0.0028,0.0004,0.0046,0.0007,0.0008,0.0009,-0.0022,-0.0024,0.0008,0.0008,0.0008,0,0.0235,0.0252,0.0228,0.0239,0.0244,0.0208,0.023,0.0212,0.0185,0.0179,0.0156,0.01,0.0062,0.0047,0.0051,0.0027,0.0,0.003,0.0013,0.0014,0.0014,-0.0019,-0.0022,0.0011,0.0011,0.001,0.001,0,0.0275,0.0287,0.0297,0.0301,0.0303,0.0314,0.0294,0.0284,0.0262,0.0244,0.0218,0.0164,0.0133,0.0112,0.0085,0.007,0.0049,0.0023,0.0003,0.002,-0.0016,-0.002,0.0016,0.0014,0.0014,0.0013,0,0,0.0307,0.0324,0.0327,0.0343,0.0338,0.0347,0.0351,0.0349,0.0357,0.0311,0.0313,0.0256,0.0223,0.02,0.0154,0.0119,0.0091,0.0079,0.0075,0.0054,0.001,-0.0005,-0.0012,0.006,0.006,0.006,-0.0014,0,0.0346,0.0392,0.0388,0.0432,0.0456,0.043,0.0438,0.0428,0.041,0.0399,0.0333,0.0317,0.0257,0.0244,0.0198,0.0119,0.0082,0.0114,-0.0009,-0.0013,-0.0024,-0.0017,0.0008,-0.0056,-0.0019,-0.002,-0.002,0,0.0386,0.0416,0.0471,0.0503,0.051,0.0526,0.0542,0.0547,0.0518,0.0505,0.047,0.0417,0.0361,0.0305,0.018,0.0204,0.0118,0.005,0.0045,0.0007,-0.0036,-0.007,-0.0066,-0.0028,-0.0028,-0.0027,-0.0027,0,0.0428,0.0473,0.0524,0.0533,0.056,0.0573,0.0584,0.0577,0.06,0.0574,0.0586,0.05,0.0466,0.0345,0.0202,0.0191,0.0062,0.0024,-0.0071,-0.0073,-0.0087,-0.009,-0.0062,-0.0062,-0.0062,-0.0062,-0.0062,0,0.0472,0.051,0.0546,0.057,0.0632,0.0625,0.0681,0.0676,0.0687,0.0733,0.0645,0.0655,0.0474,0.0376,0.0233,0.0074,0.0082,-0.0058,-0.0092,-0.0064,-0.0064,-0.0069,-0.0068,-0.0065,-0.0064,-0.0064,-0.0063,0,0.0508,0.0529,0.059,0.0632,0.0653,0.0694,0.0758,0.0795,0.0796,0.0851,0.0849,0.0771,0.0645,0.0458,0.0263,0.0127,-0.0032,-0.0092,-0.0042,-0.0069,-0.015,-0.0146,-0.0207,-0.0208,-0.0209,-0.021,-0.0211,0,0.053,0.0566,0.0642,0.0686,0.0709,0.0774,0.0821,0.085,0.0905,0.0932,0.0962,0.086,0.0811,0.0516,0.0251,-0.0003,-0.0035,-0.0144,-0.0166,-0.0137,-0.0165,-0.0159,-0.0153,-0.0163,-0.0163,-0.0163,-0.0163,0,0.0575,0.0598,0.065,0.0748,0.081,0.0898,0.0969,0.1034,0.1076,0.1118,0.1155,0.1116,0.0842,0.0586,0.0233,0.0063,-0.0105,-0.0156,-0.0142,-0.0125,-0.01,-0.0126,-0.0121,-0.0165,-0.0165,-0.0165,-0.0165,-0.0165,0.0603,0.065,0.0719,0.0812,0.0895,0.1006,0.1088,0.1166,0.1265,0.1337,0.1299,0.1251,0.0956,0.0509,0.0199,-0.0125,-0.0112,-0.022,-0.0218,-0.0216,-0.0192,-0.017,-0.0243,-0.0244,-0.0244,-0.0244,-0.0244,0,0.0637,0.0694,0.078,0.0893,0.0988,0.1035,0.1178,0.1254,0.1373,0.1435,0.1461,0.1196,0.0904,0.0565,0.0083,-0.0202,-0.0222,-0.0287,-0.025,-0.0246,-0.0243,-0.022,-0.028,-0.0281,-0.0281,-0.0282,0,0,0.0657,0.0739,0.0788,0.0948,0.1036,0.1183,0.1275,0.138,0.1457,0.1513,0.1496,0.1437,0.1021,0.067,0.0272,-0.0005,-0.0055,-0.0056,0.0005,0.0099,0.0106,-0.0173,-0.0129,0,0,0,0,0]}],[{"header":{"parameterUnit":"m.s-1","parameterCategory":2,"la1":30.2991,"la2":30.254,"lo1":-89.0895,"lo2":-89.0444,"dy":0.0017,"dx":0.0017,"nx":28,"ny":28,"refTime":"2023-08-29T21:00:00:Z","depth":"4","parameterNumber":2,"parameterNumberName":"U-component_of_CURRENTS"},"data":[0,0,0,0,0,0,0,0,0,0,0,0,0,0,0,0,0,0,0,0,0,0,0,0,0,0,0,0,0,0,0,0,0,0,0,0,0,0,0,0,0,0,0,0,0,0,0,0,0,0,0,0,0,0,0,0,0,0,0.1439,0.144,0,0.152,0.1521,0.1522,0.158,0.1581,0.1581,0.1582,0.1664,0.1666,0.1667,0,0,0,0,0,0,0,0,0,0,0,0,0,0.1351,0.1353,0.1439,0.144,0.1441,0.152,0.1521,0.1522,0.158,0.1581,0.1581,0.1582,0.1663,0.1665,0.1667,0,0,0,0,0,0,0,0,0,0,0,0,0,0.1407,0.1353,0.1438,0.1479,0.1483,0.152,0.1521,0.1523,0.158,0.1581,0.1581,0.1582,0.1663,0.1665,0.1668,0.167,0,0,0.1676,0.1677,0,0,0,0,0,0,0,0,0.1404,0.141,0.1472,0.1476,0.1481,0.1541,0.1521,0.1572,0.158,0.1543,0.1582,0.1582,0.1622,0.1628,0.1642,0.1674,0.1678,0.1676,0.1678,0.1679,0.1679,0,0,0,0,0,0,0,0.14,0.1407,0.1471,0.1473,0.1479,0.1499,0.1508,0.1531,0.1578,0.1547,0.1551,0.156,0.1625,0.1639,0.1644,0.1679,0.1676,0.1678,0.168,0.1681,0.1806,0.1808,0,0,0,0,0,0,0.1388,0.1403,0.1468,0.1473,0.1443,0.15,0.151,0.1521,0.1578,0.1587,0.1559,0.1562,0.1635,0.1641,0.1647,0.1732,0.1679,0.1681,0.1683,0.1804,0.1806,0.1808,0,0,0,0,0,0,0.1386,0.1393,0.1465,0.144,0.1451,0.1501,0.1513,0.1522,0.1568,0.1587,0.1597,0.1598,0.1635,0.1644,0.1698,0.1733,0.1682,0.1685,0.1802,0.1805,0.1807,0.1851,0,0,0,0,0,0,0.1383,0.1392,0.1415,0.1439,0.1452,0.1506,0.1513,0.1523,0.157,0.1575,0.1623,0.163,0.1637,0.1694,0.1701,0.1735,0.1687,0.18,0.1803,0.1806,0.1847,0.1855,0.1861,0,0,0,0,0,0.1379,0.1397,0.1416,0.1425,0.1476,0.1507,0.1517,0.1554,0.1571,0.1597,0.1633,0.163,0.172,0.1698,0.1705,0.1741,0.1798,0.1802,0.1806,0.1844,0.1853,0.1861,0,0,0,0,0,0,0.137,0.1406,0.1426,0.1455,0.149,0.1518,0.1548,0.1571,0.1619,0.1638,0.1651,0.1661,0.1724,0.1727,0.1702,0.1788,0.1759,0.1765,0.1786,0.1794,0.1801,0.1812,0.1689,0,0,0,0,0,0.1378,0.1404,0.1439,0.1466,0.1487,0.1525,0.155,0.1578,0.1614,0.1638,0.167,0.1707,0.1741,0.1763,0.1795,0.1838,0.1846,0.1867,0.1874,0.1879,0.1894,0.1936,0.1948,0.1821,0.1821,0.1821,0,0,0.1381,0.1405,0.1421,0.1467,0.1499,0.1534,0.1543,0.1592,0.1629,0.1638,0.1709,0.1738,0.176,0.1814,0.1841,0.1823,0.1919,0.1884,0.1889,0.1901,0.1941,0.1953,0.1964,0.1824,0.1823,0.1823,0,0,0.1389,0.1425,0.1451,0.1483,0.1539,0.1563,0.1583,0.1635,0.1673,0.1733,0.1753,0.1806,0.1854,0.1881,0.1895,0.1959,0.1958,0.1972,0.2012,0.2052,0.2062,0.2072,0.2092,0.2103,0.197,0.197,0.197,0,0.1398,0.143,0.1464,0.1498,0.1528,0.1577,0.1613,0.1655,0.1722,0.1757,0.1765,0.1865,0.1885,0.1946,0.1973,0.1975,0.1993,0.1975,0.206,0.207,0.2079,0.2097,0.2108,0.1972,0.1972,0.1972,0.1972,0,0.1416,0.1457,0.1475,0.1533,0.1572,0.1612,0.1667,0.1725,0.1774,0.1812,0.1901,0.1938,0.1996,0.201,0.2013,0.2091,0.2081,0.2066,0.2035,0.2094,0.211,0.2121,0.1976,0.1975,0.1974,0.1974,0,0,0.1394,0.1474,0.1484,0.1518,0.1597,0.1624,0.17,0.1772,0.1827,0.19,0.1969,0.2037,0.2073,0.2094,0.2112,0.2148,0.2222,0.2141,0.2142,0.2155,0.2307,0.2167,0.2165,0.2226,0.2228,0.223,0.229,0,0.1404,0.146,0.1503,0.1566,0.1601,0.1672,0.173,0.1807,0.1878,0.1959,0.202,0.2095,0.2098,0.2142,0.2182,0.2222,0.2256,0.2207,0.2255,0.2256,0.2119,0.2174,0.2238,0.2298,0.23,0.2302,0.2304,0,0.1407,0.1446,0.1505,0.1586,0.1609,0.1659,0.1767,0.1828,0.1947,0.2009,0.21,0.2153,0.2245,0.2229,0.2327,0.23,0.2317,0.233,0.2332,0.2196,0.2136,0.2231,0.2323,0.2322,0.232,0.2319,0.2318,0,0.1362,0.1446,0.1491,0.1519,0.1619,0.1671,0.1734,0.185,0.1922,0.2056,0.2129,0.2226,0.2303,0.2346,0.2396,0.2374,0.2483,0.2446,0.2331,0.232,0.2409,0.2398,0.2508,0.2508,0.2508,0.2508,0.2508,0,0.1339,0.1376,0.1479,0.1502,0.1571,0.1652,0.1748,0.1828,0.1963,0.2044,0.2159,0.2236,0.2343,0.2415,0.2428,0.2418,0.2512,0.2352,0.2333,0.2424,0.2415,0.2416,0.2404,0.251,0.2509,0.2509,0.2509,0,0.1275,0.1341,0.14,0.1511,0.1553,0.1605,0.1757,0.1817,0.1959,0.2076,0.2129,0.2282,0.2366,0.2441,0.2517,0.2451,0.2455,0.2424,0.2527,0.2511,0.2254,0.2244,0.229,0.2286,0.2282,0.2279,0.2276,0,0.1239,0.1267,0.1394,0.1435,0.1491,0.159,0.1654,0.1804,0.1873,0.2079,0.2116,0.2266,0.2345,0.2345,0.2422,0.2433,0.2405,0.2382,0.2307,0.2258,0.2236,0.2232,0.2227,0.227,0.2269,0.2268,0.2268,0,0.1175,0.1236,0.1286,0.1375,0.1448,0.1523,0.1629,0.1672,0.1836,0.1985,0.2065,0.2119,0.221,0.2257,0.2291,0.229,0.2381,0.2343,0.235,0.2279,0.2235,0.2215,0.2215,0.2255,0.2257,0.2258,0.2259,0,0.1133,0.1151,0.1233,0.1299,0.1382,0.1423,0.1496,0.1577,0.1668,0.1883,0.1902,0.2054,0.2189,0.2184,0.2211,0.2207,0.2163,0.2077,0.2097,0.2112,0.2024,0.1941,0.1865,0,0,0,0,0,0.1089,0.1099,0.115,0.1213,0.1287,0.1341,0.1459,0.1534,0.1692,0.1701,0.1802,0.1874,0.1934,0.2011,0.1969,0.212,0.2163,0.206,0.2071,0.2184,0.2199,0.2112,0,0,0,0,0,0,0.1057,0.1099,0.1116,0.1127,0.1151,0.1222,0.129,0.1398,0.1416,0.1584,0.1629,0.1758,0.1844,0.1942,0.1934,0.1955,0.1921,0.2155,0.215,0.2176,0.2189,0.2201,0.2117,0,0,0,0,0]},{"header":{"parameterUnit":"m.s-1","parameterCategory":2,"la1":30.2991,"la2":30.254,"lo1":-89.0895,"lo2":-89.0444,"dy":0.0017,"dx":0.0017,"nx":28,"ny":28,"refTime":"2023-08-29T21:00:00:Z","depth":"4","parameterNumber":3,"parameterNumberName":"V-component_of_CURRENTS"},"data":[0,0,0,0,0,0,0,0,0,0,0,0,0,0,0,0,0,0,0,0,0,0,0,0,0,0,0,0,0,0,0,0,0,0,0,0,0,0,0,0,0,0,0,0,0,0,0,0,0,0,0,0,0,0,0,0,0,0,0.0178,0.0178,0,0.0152,0.0152,0.0151,0.0131,0.0131,0.0131,0.0131,0.0081,0.008,0.0078,0,0,0,0,0,0,0,0,0,0,0,0,0,0.0188,0.0188,0.0178,0.0178,0.0178,0.0152,0.0152,0.0151,0.0131,0.0131,0.0131,0.0131,0.0081,0.008,0.0078,0,0,0,0,0,0,0,0,0,0,0,0,0,0.0174,0.0188,0.0178,0.0165,0.0164,0.0152,0.0152,0.0151,0.0131,0.0131,0.0131,0.0131,0.0082,0.008,0.0078,0.0069,0,0,0.0072,0.0072,0,0,0,0,0,0,0,0,0.0175,0.0173,0.0167,0.0166,0.0165,0.0146,0.0137,0.0123,0.0131,0.0142,0.0131,0.0131,0.0101,0.0098,0.0092,0.0067,0.0065,0.0072,0.0071,0.007,0.007,0,0,0,0,0,0,0,0.0176,0.0174,0.0166,0.0167,0.0166,0.0154,0.0151,0.0134,0.0121,0.0141,0.014,0.0139,0.01,0.0094,0.009,0.0064,0.0072,0.0071,0.0069,0.0069,0.0024,0.0024,0,0,0,0,0,0,0.0183,0.0175,0.0167,0.0166,0.0171,0.0154,0.0151,0.0151,0.0122,0.0118,0.0139,0.0138,0.0097,0.0093,0.0088,0.0082,0.007,0.0068,0.0067,0.0024,0.0024,0.0024,0,0,0,0,0,0,0.0183,0.0182,0.0168,0.0171,0.0168,0.0154,0.0153,0.0151,0.0147,0.0121,0.0116,0.0139,0.0097,0.0091,0.0076,0.008,0.0068,0.0066,0.0024,0.0024,0.0024,0.0065,0,0,0,0,0,0,0.0183,0.0183,0.0186,0.0171,0.0169,0.0166,0.0154,0.015,0.0147,0.0145,0.0119,0.0114,0.0096,0.0079,0.0075,0.0077,0.0064,0.0024,0.0024,0.0024,0.0064,0.0067,0.0069,0,0,0,0,0,0.0184,0.0192,0.0186,0.0185,0.0173,0.0166,0.0163,0.0151,0.0147,0.0147,0.013,0.0115,0.0075,0.0078,0.0072,0.0074,0.0024,0.0024,0.0024,0.0063,0.0066,0.0069,0,0,0,0,0,0,0.0199,0.0191,0.0184,0.0189,0.0179,0.0163,0.0165,0.0156,0.0142,0.0143,0.0116,0.011,0.0097,0.0079,0.0083,0.006,0.0046,0.0045,0.0078,0.0081,0.0083,0.0099,0.0063,0,0,0,0,0,0.0203,0.0208,0.0194,0.0199,0.0196,0.0181,0.0178,0.017,0.0157,0.0151,0.0131,0.011,0.0092,0.0082,0.0063,0.0052,0.0027,0.0048,0.005,0.0053,0.0061,0.0021,0.002,0.0023,0.0023,0.0023,0,0,0.0211,0.0207,0.021,0.0203,0.0195,0.0199,0.0179,0.0179,0.018,0.0147,0.0143,0.0119,0.009,0.0078,0.007,0.0064,0.0039,0.0052,0.0055,0.0062,0.0021,0.002,0.002,0.0023,0.0023,0.0023,0,0,0.0232,0.0225,0.0236,0.023,0.0224,0.0217,0.0219,0.0204,0.0195,0.0187,0.0163,0.0141,0.0116,0.0093,0.008,0.0083,0.0053,0.0076,0.0102,0.0063,0.0063,0.0062,0.0032,0.0028,0.0078,0.0078,0.0078,0,0.024,0.0253,0.0238,0.0245,0.0249,0.0228,0.0243,0.0229,0.021,0.0206,0.0193,0.0151,0.0123,0.0105,0.0106,0.0089,0.0066,0.0095,0.0067,0.0066,0.0064,0.0033,0.0029,0.008,0.0079,0.0079,0.0079,0,0.0265,0.0276,0.0283,0.0288,0.0289,0.0298,0.0282,0.0275,0.0264,0.0251,0.023,0.0188,0.0165,0.0148,0.0129,0.0107,0.0094,0.0075,0.0063,0.0067,0.0033,0.0028,0.0082,0.0082,0.0081,0.0081,0,0,0.028,0.0299,0.0302,0.0316,0.0315,0.0321,0.0322,0.032,0.0325,0.0292,0.0292,0.0246,0.0224,0.0206,0.017,0.0134,0.01,0.0107,0.0104,0.0083,0.002,0.0012,0.0004,0.0076,0.0075,0.0075,0.0002,0,0.0306,0.0339,0.034,0.0374,0.0392,0.0376,0.0382,0.0374,0.0361,0.0351,0.03,0.0288,0.0245,0.0235,0.0192,0.0125,0.0087,0.0122,0.0014,0.0011,0.0008,-0.0002,0.0072,-0.0003,-0.0004,-0.0005,-0.0006,0,0.0328,0.0352,0.0394,0.0425,0.0431,0.0445,0.0457,0.046,0.0437,0.0427,0.0399,0.036,0.0308,0.0268,0.0155,0.0181,0.0109,0.005,0.0046,0.0022,-0.0007,-0.001,-0.0016,-0.0015,-0.0015,-0.0014,-0.0013,0,0.0351,0.0389,0.043,0.0439,0.0466,0.0479,0.0492,0.0485,0.0502,0.0478,0.0486,0.0412,0.0381,0.0279,0.016,0.0158,0.0031,0.001,-0.0067,-0.0069,-0.0057,-0.0055,-0.0072,-0.0072,-0.0072,-0.0071,-0.0071,0,0.0376,0.0407,0.0446,0.0466,0.0517,0.0519,0.0564,0.0559,0.0568,0.0594,0.0532,0.0525,0.0382,0.0293,0.0178,0.0041,0.0041,-0.0062,-0.009,-0.0038,-0.0033,-0.0061,-0.0058,-0.0074,-0.0074,-0.0073,-0.0073,0,0.0391,0.0416,0.0466,0.051,0.0531,0.0566,0.0625,0.0651,0.0655,0.0684,0.0682,0.0609,0.0489,0.034,0.0169,0.0072,-0.0063,-0.0113,-0.0037,-0.006,-0.0141,-0.0136,-0.0203,-0.0204,-0.0205,-0.0206,-0.0206,0,0.0401,0.043,0.0502,0.054,0.0565,0.0623,0.0663,0.0693,0.0726,0.0733,0.0745,0.0649,0.0577,0.0341,0.0174,-0.005,-0.0085,-0.0153,-0.0157,-0.0135,-0.0155,-0.0149,-0.0142,-0.0208,-0.0208,-0.0208,-0.0208,0,0.0418,0.0445,0.0488,0.057,0.0626,0.0698,0.0757,0.0791,0.0819,0.0828,0.0799,0.0678,0.054,0.0345,0.0169,0.0008,-0.0108,-0.0162,-0.0162,-0.0166,-0.0141,-0.0159,-0.0152,-0.0211,-0.0211,-0.021,-0.021,0,0.0426,0.0459,0.0518,0.059,0.0668,0.0742,0.0778,0.0815,0.0852,0.0855,0.0841,0.0698,0.0614,0.0375,0.0215,0.0052,0.0007,-0.0046,-0.0053,-0.0052,0.0008,0.0063,0.0033,0,0,0,0,0,0.0428,0.0465,0.0532,0.0611,0.0692,0.0744,0.0825,0.0853,0.0884,0.0871,0.0861,0.0734,0.05,0.0402,0.0237,0.0181,-0.0034,-0.0019,-0.0101,-0.0226,-0.0223,-0.0181,0,0,0,0,0,0,0.0427,0.0485,0.0524,0.0618,0.0676,0.0769,0.0826,0.085,0.0847,0.0852,0.0733,0.0686,0.0457,0.0589,0.023,0.0182,0.0106,-0.0124,-0.0127,-0.0228,-0.0225,-0.0223,-0.0178,0,0,0,0,0]}]]